Location: Albany
(35.0170°S, 117.8920°E)
Time: 01:04:27
(UTC+08:00)

A-11 Canister half - Pass Details

Date: 23 January 2021
Orbit: 1525 x 1684 km, 47.3° (Epoch: 01 March)

Event Time Altitude Azimuth Distance (km) Brightness Sun altitude
Rises 06:11:05 0° 253° (WSW) 4,915 11.1 9.2°
Reaches altitude 10° 06:14:36 10° 245° (WSW) 3,910 10.7 9.9°
Maximum altitude 06:23:51 40° 177° (S) 2,234 10.2 11.7°
Drops below altitude 10° 06:32:49 10° 109° (ESE) 3,789 14.1 13.5°
Sets 06:36:10 0° 101° (ESE) 4,750 13.6 14.2°
